Date String (YYYY-MM-DD hh:mm:ss) UTC,Instrument flags,Ambient pressure (hPa),Sample flow (lpm),Bypass flow (lpm),Sample temperature (°C),Ambient temperature (°C),ASC tube jacket temperature (°C),LED temperature (°C),Box temperature (°C),Sample RH (%),Span deviation,Mass concentration (μg/m³),Mass concentration (μg/m³),Mass concentration (μg/m³)
DateTimeUTC,F1_M11,P_M11,Q1_M11,Q2_M11,T1_M11,T2_M11,T3_M11,T4_M11,T5_M11,U1_M11,ZSPAN_M11,X0_M11,X2_M11,X1_M11
2022-02-15 18:00:00,,0815.7,5.00,0.00,25.3,24.6,00.0,34.0,27.2,08.0,0000.0,0009.13,0004.97,0004.47
2022-02-15 18:01:00,,0815.7,5.01,0.00,25.3,24.6,00.0,34.0,27.2,08.4,0000.0,0008.51,0004.95,0004.49
2022-02-15 18:02:00,,0815.7,4.98,0.00,25.3,24.6,00.0,34.0,27.2,08.3,0000.0,0008.06,0004.96,0004.51
2022-02-15 18:03:00,,0815.7,5.01,0.00,25.3,24.6,00.0,34.1,27.3,07.9,0000.0,0008.32,0004.98,0004.51
2022-02-15 18:04:00,,0815.7,4.99,0.00,25.4,24.6,00.0,34.1,27.3,07.9,0000.0,0008.53,0004.91,0004.46
2022-02-15 18:05:00,,0815.7,5.01,0.00,25.4,24.7,00.0,34.1,27.3,08.1,0000.0,0008.54,0004.86,0004.43
2022-02-15 18:06:00,,0815.7,5.00,0.00,25.4,24.7,00.0,34.1,27.4,07.9,0000.0,0008.82,0004.79,0004.37
2022-02-15 18:07:00,,0815.7,4.99,0.00,25.4,24.8,00.0,34.2,27.4,08.0,0000.0,0008.77,0004.71,0004.28
2022-02-15 18:08:00,,0815.7,5.01,0.00,25.5,24.8,00.0,34.2,27.4,07.4,0000.0,0008.43,0004.59,0004.20
2022-02-15 18:09:00,,0815.7,4.99,0.00,25.5,24.8,00.0,34.2,27.4,07.4,0000.0,0008.28,0004.49,0004.09
2022-02-15 18:10:00,,0815.6,5.00,0.00,25.5,24.8,00.0,34.2,27.4,07.8,0000.0,0008.23,0004.42,0004.02
2022-02-15 18:11:00,,0815.6,5.00,0.00,25.5,24.8,00.0,34.3,27.5,07.3,0000.0,0008.18,0004.37,0003.96
2022-02-15 18:12:00,,0815.6,5.02,0.00,25.5,24.8,00.0,34.3,27.5,07.6,0000.0,0008.22,0004.32,0003.91
2022-02-15 18:13:00,,0816.0,4.98,0.00,25.6,24.9,00.0,34.3,27.5,07.7,0000.0,0008.15,0004.29,0003.88
2022-02-15 18:14:00,,0815.8,5.01,0.00,25.6,24.9,00.0,34.3,27.5,07.6,0000.0,0007.95,0004.24,0003.84
2022-02-15 18:15:00,,0815.8,4.98,0.00,25.6,24.9,00.0,34.4,27.5,07.2,0000.0,0007.48,0004.18,0003.80
2022-02-15 18:16:00,,0816.2,5.01,0.00,25.6,24.9,00.0,34.4,27.6,07.0,0000.0,0007.26,0004.11,0003.74
2022-02-15 18:17:00,,0816.1,4.98,0.00,25.7,24.9,00.0,34.4,27.6,06.9,0000.0,0006.42,0004.01,0003.67
2022-02-15 18:18:00,,0816.1,5.01,0.00,25.7,25.0,00.0,34.4,27.6,07.6,0000.0,0006.45,0003.92,0003.61
2022-02-15 18:19:00,,0816.0,5.00,0.00,25.7,25.0,00.0,34.4,27.7,06.9,0000.0,0006.76,0003.86,0003.55
2022-02-15 18:20:00,,0816.0,4.99,0.00,25.7,25.1,00.0,34.5,27.7,06.6,0000.0,0006.62,0003.80,0003.50
2022-02-15 18:21:00,,0816.0,5.01,0.00,25.8,25.1,00.0,34.5,27.7,07.0,0000.0,0006.38,0003.72,0003.44
2022-02-15 18:22:00,,0816.0,5.00,0.00,25.8,25.1,00.0,34.5,27.7,07.1,0000.0,0006.28,0003.65,0003.38
2022-02-15 18:23:00,,0816.1,4.99,0.00,25.8,25.1,00.0,34.5,27.8,06.8,0000.0,0005.96,0003.55,0003.30
2022-02-15 18:24:00,,0816.1,5.00,0.00,25.8,25.1,00.0,34.6,27.8,06.4,0000.0,0005.79,0003.46,0003.21
2022-02-15 18:25:00,,0816.0,4.98,0.00,25.9,25.2,00.0,34.6,27.8,06.4,0000.0,0005.52,0003.34,0003.11
2022-02-15 18:26:00,,0816.0,5.00,0.00,25.9,25.2,00.0,34.6,27.8,06.2,0000.0,0005.28,0003.24,0002.96
2022-02-15 18:27:00,,0816.0,5.00,0.00,25.9,25.2,00.0,34.6,27.9,06.2,0000.0,0005.13,0003.17,0002.84
2022-02-15 18:28:00,,0816.0,5.00,0.00,26.0,25.2,00.0,34.7,27.9,06.0,0000.0,0005.03,0003.10,0002.73
2022-02-15 18:29:00,,0815.6,5.00,0.00,26.0,25.2,00.0,34.7,27.9,05.5,0000.0,0004.53,0002.98,0002.61
2022-02-15 18:30:00,,0815.9,4.99,0.00,26.0,25.3,00.0,34.7,27.9,05.7,0000.0,0003.86,0002.86,0002.51
2022-02-15 18:31:00,,0815.5,5.01,0.00,26.0,25.3,00.0,34.7,27.9,05.8,0000.0,0004.00,0002.82,0002.43
2022-02-15 18:32:00,,0815.5,4.98,0.00,26.0,25.3,00.0,34.8,27.9,05.7,0000.0,0003.94,0002.71,0002.34
2022-02-15 18:33:00,,0815.4,5.01,0.00,26.1,25.3,00.0,34.8,28.0,06.1,0000.0,0004.00,0002.60,0002.27
2022-02-15 18:34:00,,0815.4,5.00,0.00,26.1,25.4,00.0,34.8,28.0,06.1,0000.0,0004.38,0002.59,0002.22
2022-02-15 18:35:00,,0815.4,5.01,0.00,26.1,25.4,00.0,34.8,28.0,06.3,0000.0,0004.51,0002.55,0002.16
2022-02-15 18:36:00,,0815.4,4.99,0.00,26.1,25.4,00.0,34.8,28.0,06.3,0000.0,0004.51,0002.54,0002.13
2022-02-15 18:37:00,,0815.3,5.02,0.00,26.1,25.5,00.0,34.9,28.1,05.8,0000.0,0004.44,0002.51,0002.11
2022-02-15 18:38:00,,0815.3,4.99,0.00,26.2,25.5,00.0,34.9,28.1,06.0,0000.0,0004.50,0002.50,0002.08
2022-02-15 18:39:00,,0815.3,5.02,0.00,26.2,25.5,00.0,34.9,28.1,05.8,0000.0,0004.51,0002.49,0002.07
2022-02-15 18:40:00,,0815.3,4.98,0.00,26.2,25.5,00.0,34.9,28.1,05.6,0000.0,0005.45,0002.52,0002.08
2022-02-15 18:41:00,,0815.2,5.01,0.00,26.2,25.5,00.0,35.0,28.2,05.6,0000.0,0005.46,0002.53,0002.09
2022-02-15 18:42:00,,0815.2,4.99,0.00,26.3,25.6,00.0,35.0,28.2,05.8,0000.0,0005.33,0002.49,0002.08
2022-02-15 18:43:00,,0815.2,5.01,0.00,26.3,25.6,00.0,35.0,28.2,05.6,0000.0,0005.22,0002.49,0002.08
2022-02-15 18:44:00,,0815.2,5.01,0.00,26.3,25.6,00.0,35.0,28.2,05.7,0000.0,0005.01,0002.51,0002.08
2022-02-15 18:45:00,,0815.2,4.99,0.00,26.3,25.6,00.0,35.1,28.3,05.6,0000.0,0004.47,0002.48,0002.06
2022-02-15 18:46:00,,0815.2,5.02,0.00,26.4,25.6,00.0,35.1,28.3,05.0,0000.0,0004.24,0002.42,0002.02
2022-02-15 18:47:00,,0815.1,4.99,0.00,26.4,25.6,00.0,35.1,28.3,04.9,0000.0,0004.12,0002.36,0001.98
2022-02-15 18:48:00,,0815.4,5.01,0.00,26.4,25.6,00.0,35.1,28.3,05.2,0000.0,0004.13,0002.33,0001.95
2022-02-15 18:49:00,,0815.2,4.99,0.00,26.4,25.6,00.0,35.2,28.3,05.1,0000.0,0003.98,0002.27,0001.94
2022-02-15 18:50:00,,0815.2,5.01,0.00,26.4,25.7,00.0,35.2,28.3,04.8,0000.0,0004.04,0002.25,0001.89
2022-02-15 18:51:00,,0815.1,4.99,0.00,26.4,25.7,00.0,35.2,28.3,04.9,0000.0,0003.39,0002.24,0001.87
2022-02-15 18:52:00,,0815.1,5.00,0.00,26.5,25.7,00.0,35.2,28.3,05.2,0000.0,0003.25,0002.23,0001.85
2022-02-15 18:53:00,,0815.1,5.01,0.00,26.5,25.7,00.0,35.2,28.4,05.2,0000.0,0003.37,0002.22,0001.83
2022-02-15 18:54:00,,0815.1,4.98,0.00,26.5,25.7,00.0,35.3,28.4,05.0,0000.0,0003.39,0002.21,0001.80
2022-02-15 18:55:00,,0815.0,5.02,0.00,26.5,25.7,00.0,35.3,28.4,04.6,0000.0,0005.12,0002.20,0001.76
2022-02-15 18:56:00,,0815.0,4.99,0.00,26.5,25.7,00.0,35.3,28.4,05.0,0000.0,0005.29,0002.19,0001.75
2022-02-15 18:57:00,,0815.0,5.01,0.00,26.6,25.8,00.0,35.3,28.4,05.4,0000.0,0005.43,0002.21,0001.77
2022-02-15 18:58:00,,0815.0,5.00,0.00,26.6,25.8,00.0,35.3,28.4,05.7,0000.0,0005.57,0002.26,0001.80
2022-02-15 18:59:00,,0815.1,5.00,0.00,26.6,25.8,00.0,35.4,28.4,05.5,0000.0,0005.57,0002.29,0001.83
